User: anonymous   Login
Location: Unspecified
(0.0000°N, 0.0000°E)
Time: 12:40:19
(UTC+00:00)
Language:

YAOGAN 9B - Orbit

View from above orbital plane
View from above orbital plane
View from above satellite
View from above satellite

Ground track
Ground track

The orbit data is extracted from the following two-line orbital elements,

1 36414U 10009B   18201.21751344  .00000011  00000-0  13507-3 0  9998
2 36414  63.3967 247.4638 0282487   5.1235 355.2559 13.45178519411481
Epoch (UTC): 20 July 2018 05:13:13
Eccentricity: 0.0282487
inclination: 63.3967°
perigee height: 879 km
apogee height: 1301 km
right ascension of ascending node: 247.4638°
argument of perigee: 5.1235°
revolutions per day: 13.45178519
mean anomaly at epoch: 355.2559°
orbit number at epoch: 41148

The dashed part of the orbit path shows where the satellite is in the earth's shadow,  

DLR